MOLNIYA 1-88

Last updated on Jan. 25, 2021, 10:42 a.m. UTC

1 23420U 94081A   21024.66833470 -.00000032  00000-0  00000-0 0  9995
2 23420  64.2346 311.9928 5978741 291.1143  16.9810  3.34496017 96684
UTC
Height (km)
Latitude
Longitude
Inclination
Orbital Period
UTC large
Height (km)
Speed (km/s)
/
Latitude / Longitude
Inclination (degrees)
Orbital Period (minutes)
Azimuth
Elevation
Range (km)
Doppler Factor
iOS Compass Heading
iOS Angle

Next 30 passes for location: Hong Kong

Rise time Rise Azimuth (degrees) Set time Set Azimuth (degrees) Duration Max altitude (degrees)

No matching passes for this satellites